Location: *
(57.8420°S, 159.8600°W)
Time: 12:56:40
(UTC+00:00)

Cosmos 2266 Rocket - Pass Details

Date: 18 May 2021
Orbit: 933 x 1009 km, 82.9° (Epoch: 22 June)

Event Time Altitude Azimuth Distance (km) Brightness Sun altitude
Rises 06:17:08 0° 336° (NNW) 3,607 7.1 -29.9°
Reaches altitude 10° 06:19:38 10° 332° (NNW) 2,676 6.5 -30.2°
Maximum altitude 06:25:41 60° 251° (WSW) 1,103 4.4 -31.0°
Drops below altitude 10° 06:31:54 10° 171° (S) 2,749 6.4 -31.8°
Sets 06:34:31 0° 167° (SSE) 3,713 7.1 -32.2°
